Weather History for KEIK - March, 2013

Change the Weather History Date:

Wednesday, March 27, 2013

  Actual Average (KDEN) Record (KDEN)
Temperature  
Mean Temperature 38 °F 43 °F  
Max Temperature 51 °F 57 °F 78 °F (1988)
Min Temperature 26 °F 29 °F -5 °F (1899)
Degree Days  
Heating Degree Days 26 22  
Month to date heating degree days 677  
Since 1 July heating degree days 5116  
Cooling Degree Days 0 0  
Month to date cooling degree days 0  
Year to date cooling degree days 0  
Moisture  
Dew Point 31 °F    
Average Humidity 78    
Maximum Humidity 99    
Minimum Humidity 53    
Precipitation  
Precipitation 0.00 in 0.04 in 0.61 in (1886)
Month to date precipitation 0.76  
Year to date precipitation 1.54  
Snow  
Snow 0.00 in - - ()
Month to date snowfall  
Since 1 July snowfall  
Snow Depth -    
Sea Level Pressure  
Sea Level Pressure 30.05 in    
Wind  
Wind Speed 2 mph (ENE)    
Max Wind Speed 9 mph    
Max Gust Speed -    
Visibility 9 miles    
Events      
T = Trace of Precipitation, MM = Missing Value Source: NWS Daily Summary

Daily Weather History Graph

Daily Weather History Graph

Search for Another Location

Airport or City:

Trip Planner

Search our weather history database for the weather conditions in past years. The results will help you decide how hot, cold, wet, or windy it might be!

Date:

Astronomy

Mar. 27, 2013 Rise Set
Actual Time 6:51 AM MDT 7:19 PM MDT
Civil Twilight 6:24 AM MDT 7:46 PM MDT
Nautical Twilight 5:52 AM MDT 8:18 PM MDT
Astronomical Twilight 5:19 AM MDT 8:51 PM MDT
Moon 8:06 PM MDT (3/27) 6:44 AM MDT (3/27)
Length of Visible Light 13h 22m
Length of Day
12h 27m
Full, 100% of the Moon is Illuminated
Mar 27
Full
Apr 2
Last Quarter
Apr 10
New
Apr 18
First Quarter
Apr 25
Full

Hourly Weather History & Observations

Time (MDT) Temp. Windchill Dew Point Humidity Pressure Visibility Wind Dir Wind Speed Gust Speed Precip Events Conditions
12:16 AM 31.5 °F 28.1 °F 27.5 °F 85% 30.03 in 10.0 mi SW 3.5 mph - N/A   Clear
12:36 AM 29.8 °F - 27.5 °F 91% 30.02 in 10.0 mi Calm Calm - N/A   Scattered Clouds
12:56 AM 30.2 °F - 27.0 °F 88% 30.02 in 10.0 mi Calm Calm - N/A   Clear
1:16 AM 29.3 °F - 26.6 °F 90% 30.01 in 10.0 mi Calm Calm - N/A   Clear
1:36 AM 29.1 °F 25.4 °F 26.4 °F 90% 30.01 in 10.0 mi SW 3.5 mph - N/A   Clear
1:56 AM 29.1 °F 23.0 °F 26.1 °F 88% 30.01 in 10.0 mi SSW 5.8 mph - N/A   Clear
2:16 AM 29.3 °F 24.3 °F 26.1 °F 88% 30.00 in 10.0 mi SSW 4.6 mph - N/A   Clear
2:36 AM 30.2 °F - 26.2 °F 85% 30.00 in 10.0 mi Calm Calm - N/A   Clear
2:56 AM 29.5 °F - 25.7 °F 86% 30.00 in 10.0 mi Calm Calm - N/A   Clear
3:16 AM 27.9 °F - 25.0 °F 89% 30.01 in 10.0 mi Calm Calm - N/A   Clear
3:36 AM 27.5 °F - 25.5 °F 92% 30.00 in 7.0 mi Calm Calm - N/A   Clear
3:56 AM 27.9 °F - 26.1 °F 93% 30.00 in 7.0 mi Calm Calm - N/A   Clear
4:16 AM 26.6 °F - 24.8 °F 93% 30.01 in 7.0 mi Calm Calm - N/A   Clear
4:36 AM 27.3 °F - 25.9 °F 94% 30.01 in 7.0 mi Calm Calm - N/A   Clear
4:56 AM 28.6 °F - 27.1 °F 94% 30.01 in 10.0 mi Calm Calm - N/A   Mostly Cloudy
5:16 AM 29.7 °F - 27.3 °F 91% 30.02 in 10.0 mi Calm Calm - N/A   Mostly Cloudy
5:36 AM 29.8 °F 23.9 °F 27.9 °F 92% 30.02 in 10.0 mi SSE 5.8 mph - N/A   Mostly Cloudy
5:56 AM 31.1 °F - 27.9 °F 88% 30.02 in 10.0 mi Calm Calm - N/A   Scattered Clouds
6:16 AM 28.8 °F - 26.6 °F 92% 30.03 in 10.0 mi Calm Calm - N/A   Clear
6:36 AM 28.0 °F - 26.4 °F 94% 30.03 in 10.0 mi Calm Calm - N/A   Clear
6:56 AM 28.6 °F - 26.6 °F 92% 30.04 in 10.0 mi Calm Calm - N/A   Clear
7:16 AM 27.7 °F - 26.6 °F 96% 30.04 in 10.0 mi Calm Calm - N/A   Clear
7:36 AM 28.4 °F - 27.0 °F 94% 30.05 in 10.0 mi Calm Calm - N/A   Clear
7:56 AM 28.4 °F - 27.3 °F 96% 30.06 in 10.0 mi Calm Calm - N/A   Clear
8:16 AM 30.6 °F - 28.6 °F 92% 30.07 in 10.0 mi Calm Calm - N/A   Clear
8:36 AM 33.1 °F - 28.9 °F 85% 30.07 in 10.0 mi Calm Calm - N/A   Clear
8:56 AM 33.8 °F - 29.1 °F 83% 30.07 in 10.0 mi Calm Calm - N/A   Clear
9:16 AM 35.8 °F - 29.8 °F 79% 30.08 in 10.0 mi Calm Calm - N/A   Clear
9:36 AM 37.0 °F - 30.0 °F 76% 30.07 in 10.0 mi Calm Calm - N/A   Clear
9:56 AM 39.6 °F - 30.2 °F 69% 30.07 in 10.0 mi Calm Calm - N/A   Clear
10:16 AM 40.3 °F - 30.6 °F 68% 30.08 in 10.0 mi Calm Calm - N/A   Clear
10:36 AM 41.9 °F - 31.1 °F 66% 30.08 in 10.0 mi Calm Calm - N/A   Clear
10:56 AM 42.4 °F 39.6 °F 32.5 °F 68% 30.08 in 10.0 mi ESE 4.6 mph - N/A   Clear
11:16 AM 42.8 °F 41.1 °F 32.4 °F 67% 30.08 in 10.0 mi East 3.5 mph - N/A   Clear
11:36 AM 43.2 °F - 32.7 °F 67% 30.08 in 10.0 mi Calm Calm - N/A   Clear
11:56 AM 43.3 °F - 33.4 °F 68% 30.08 in 10.0 mi Calm Calm - N/A   Clear
12:16 PM 45.1 °F 43.7 °F 31.3 °F 58% 30.07 in 10.0 mi East 3.5 mph - N/A   Clear
12:36 PM 45.0 °F 41.8 °F 31.3 °F 59% 30.07 in 10.0 mi ENE 5.8 mph - N/A   Clear
12:56 PM 45.5 °F 42.5 °F 30.9 °F 57% 30.07 in 10.0 mi NNE 5.8 mph - N/A   Clear
1:16 PM 46.4 °F - 31.3 °F 56% 30.07 in 10.0 mi Calm Calm - N/A   Clear
1:36 PM 46.6 °F - 31.8 °F 56% 30.06 in 10.0 mi NE 4.6 mph - N/A   Clear
1:56 PM 48.2 °F - 32.7 °F 55% 30.05 in 10.0 mi East 5.8 mph - N/A   Clear
2:16 PM 48.6 °F - 32.5 °F 54% 30.05 in 10.0 mi East 4.6 mph - N/A   Clear
2:36 PM 49.1 °F - 33.8 °F 56% 30.05 in 10.0 mi ENE 4.6 mph - N/A   Clear
2:56 PM 49.1 °F - 35.2 °F 59% 30.04 in 10.0 mi ENE 9.2 mph - N/A   Clear
3:16 PM 48.9 °F - 35.4 °F 60% 30.04 in 10.0 mi NE 5.8 mph - N/A   Clear
3:36 PM 49.3 °F - 36.7 °F 62% 30.03 in 10.0 mi ENE 6.9 mph - N/A   Clear
3:56 PM 49.8 °F - 37.2 °F 62% 30.04 in 10.0 mi ENE 5.8 mph - N/A   Clear
4:16 PM 48.6 °F - 37.0 °F 64% 30.04 in 10.0 mi NE 6.9 mph - N/A   Scattered Clouds
4:36 PM 50.5 °F - 37.0 °F 60% 30.04 in 10.0 mi ENE 5.8 mph - N/A   Scattered Clouds
4:56 PM 50.9 °F - 36.5 °F 58% 30.03 in 10.0 mi ENE 6.9 mph - N/A   Clear
5:16 PM 51.3 °F - 36.1 °F 56% 30.03 in 10.0 mi ENE 5.8 mph - N/A   Clear
5:36 PM 51.1 °F - 34.7 °F 54% 30.04 in 10.0 mi ENE 6.9 mph - N/A   Clear
5:56 PM 49.8 °F - 35.8 °F 59% 30.04 in 10.0 mi East 5.8 mph - N/A   Scattered Clouds
6:16 PM 51.1 °F - 34.3 °F 53% 30.04 in 10.0 mi East 6.9 mph - N/A   Mostly Cloudy
6:36 PM 50.0 °F - 33.8 °F 54% 30.05 in 10.0 mi East 6.9 mph - N/A   Scattered Clouds
6:56 PM 48.4 °F - 33.6 °F 57% 30.05 in 10.0 mi NNE 4.6 mph - N/A   Clear
7:16 PM 44.2 °F 42.7 °F 36.3 °F 74% 30.05 in 10.0 mi North 3.5 mph - N/A   Clear
7:36 PM 43.9 °F 40.5 °F 36.5 °F 75% 30.07 in 10.0 mi North 5.8 mph - N/A   Scattered Clouds
7:56 PM 42.6 °F 40.9 °F 36.9 °F 80% 30.07 in 10.0 mi North 3.5 mph - N/A   Scattered Clouds
8:16 PM 41.9 °F - 36.7 °F 82% 30.07 in 10.0 mi Calm Calm - N/A   Scattered Clouds
8:36 PM 40.3 °F - 35.8 °F 84% 30.07 in 10.0 mi Calm Calm - N/A   Clear
8:56 PM 38.7 °F 35.2 °F 34.7 °F 86% 30.08 in 10.0 mi NNE 4.6 mph - N/A   Clear
9:16 PM 37.2 °F - 34.9 °F 91% 30.08 in 7.0 mi Calm Calm - N/A   Clear
9:36 PM 37.4 °F - 35.6 °F 93% 30.08 in 7.0 mi Calm Calm - N/A   Clear
9:56 PM 37.8 °F - 36.0 °F 93% 30.09 in 7.0 mi Calm Calm - N/A   Clear
10:16 PM 36.9 °F - 35.6 °F 95% 30.09 in 5.0 mi Calm Calm - N/A   Clear
10:36 PM 35.6 °F - 34.3 °F 95% 30.09 in 5.0 mi Calm Calm - N/A   Clear
10:56 PM 35.2 °F - 34.0 °F 95% 30.09 in 5.0 mi Calm Calm - N/A   Clear
11:16 PM 34.2 °F - 33.4 °F 97% 30.09 in 4.0 mi Calm Calm - N/A   Clear
11:37 PM 34.2 °F - 33.6 °F 98% 30.09 in 5.0 mi Calm Calm - N/A   Clear
11:56 PM 33.3 °F - 32.9 °F 99% 30.09 in 4.0 mi Calm Calm - N/A   Clear